Tracking 28895 objects as of 27-May-2024
HD Live streaming from Space Station
objects crossing your sky now

DELTA 1 DEB

Track DELTA 1 DEB now!
10-day predictions


NORAD ID: 7020
Int'l Code: 1973-086L
Perigee: 1,495.7 km
Apogee: 1,747.8 km
Inclination: 102.3 °
Period: 118.5 minutes
Semi major axis: 7992 km
RCS: 0.2266 m2 (medium)
Launch date: November 6, 1973
Source: United States (US)
Launch site: AIR FORCE WESTERN TEST RANGE (AFWTR)

Note: This is SATELLITE DEBRIS
Your satellite tracking list
Your tracking list is empty




NASA's NSSDC Master Catalog

Two Line Element Set (TLE):
1 07020U 73086L   24147.75967862  .00000302  00000-0  34213-2 0  9991
2 07020 102.2502 237.9570 0157726 304.8564 211.1626 12.14953211240402
Source of the keplerian elements: AFSPC